"TOA5","AWS1","CR1000","7964","CR1000.Std.14","CPU:AWS1_114.CR1","64363","TBL110"
"TIMESTAMP","RECORD","Wind_spd_WVc(1)","Wind_spd_WVc(2)","Air_Temp_Avg","Humidity_Avg","SW_upper_Wm2_Avg","Rain_Tot","Press_Avg","Issui_Tot","Depth_cm","SR50A_Raw","Quality","Ground_Temp_Avg(1)","Ground_Temp_Avg(2)","SW_lower_Wm2_Avg","Albedo_Avg","SWC_per(1)","SWC_per(2)","Period(1)","Period(2)"
"TS","RN","","","","","","","","","","","","","","","","","","",""
"","","WVc","WVc","Avg","Avg","Avg","Tot","Avg","Tot","Smp","Smp","Smp","Avg","Avg","Avg","Avg","Smp","Smp","Smp","Smp"
"2016-11-24 00:00:00",263293,0.562,12.84,-3.644,100,0,0,864.3957,0,-3.169,3.233,195,7.213,8.32,0.31867,0,51.99,59.79,33.79,35.63
"2016-11-24 00:10:00",263294,0.481,45.99,-3.591,100,0,0,864.2494,0,-3.072,3.232,190,7.171,8.32,0.3110846,0,51.94,59.79,33.77,35.63
"2016-11-24 00:20:00",263295,0.376,351.6,-3.516,100,0,0,864.1429,0,-3.465,3.237,190,7.132,8.33,0.3869621,0,51.99,59.79,33.79,35.63
"2016-11-24 00:30:00",263296,0.256,316.1,-3.837,100,0,0,864.0186,0,-3.485,3.238,190,7.109,8.33,0.09104899,0,51.99,59.79,33.79,35.63
"2016-11-24 00:40:00",263297,0.2,48.15,-3.826,100,0,0,864.0286,0,-2.687,3.23,194,7.107,8.33,0.2200317,0,51.94,59.79,33.77,35.63
"2016-11-24 00:50:00",263298,0.216,10.08,-3.924,100,0,0,864.0349,0,-2.883,3.232,190,7.128,8.35,0.132775,0,51.94,59.73,33.77,35.62
"2016-11-24 01:00:00",263299,0.087,102.3,-3.854,100,0,0,863.9448,0,-3.257,3.235,194,7.118,8.3,0.2389916,0,51.94,59.79,33.77,35.63
"2016-11-24 01:10:00",263300,0.129,144.3,-3.758,100,0,0,863.6624,0,-2.76,3.23,190,7.058,8.27,0.2731325,0,51.99,59.73,33.79,35.62
"2016-11-24 01:20:00",263301,0.767,122.9,-3.581,100,0,0,863.1041,0,-2.543,3.226,191,7.051,8.28,0.5917833,0,51.94,59.73,33.77,35.62
"2016-11-24 01:30:00",263302,0.695,159.6,-3.284,100,0.003934358,0,862.8586,0,-2.893,3.228,195,7.06,8.27,0.5159149,0.016,51.94,59.73,33.77,35.62
"2016-11-24 01:40:00",263303,0.898,94.5,-3.425,100,0.007868716,0,862.6243,0,-2.614,3.227,190,7.038,8.27,0.1062167,0,51.94,59.73,33.77,35.62
"2016-11-24 01:50:00",263304,0.392,330.5,-3.528,100,0,0,862.7592,0,-2.442,3.225,187,7.031,8.3,0.2541634,0,51.94,59.73,33.77,35.62
"2016-11-24 02:00:00",263305,0.289,313.1,-3.469,100,0.003934396,0,863.1093,0,-2.914,3.23,187,7.049,8.3,0.2655441,0.016,51.94,59.73,33.77,35.62
"2016-11-24 02:10:00",263306,0.335,343.7,-3.762,100,0,0,863.0945,0,-2.609,3.229,187,7.049,8.3,0.06069571,0,51.94,59.73,33.77,35.62
"2016-11-24 02:20:00",263307,0.353,2.054,-3.864,100,0,0,862.9807,0,-2.258,3.226,196,7.013,8.27,0.1251842,0,51.94,59.73,33.77,35.62
"2016-11-24 02:30:00",263308,0.251,356.7,-3.913,100,0,0,863.1199,0,-2.732,3.23,198,6.986,8.27,0.2200195,0,51.94,59.73,33.77,35.62
"2016-11-24 02:40:00",263309,0.169,156.6,-3.805,100,0,0,862.9427,0,-2.162,3.224,206,6.971,8.23,0.2503665,0,51.94,59.73,33.77,35.62
"2016-11-24 02:50:00",263310,0.197,148.4,-3.639,100,0,0,862.6623,0,-1.745,3.218,212,6.917,8.24,0.4286575,0,51.94,59.73,33.77,35.62
"2016-11-24 03:00:00",263311,0.363,140.7,-3.335,100,0,0,862.3102,0,-1.6,3.215,206,6.916,8.24,0.6638501,0,51.94,59.73,33.77,35.62
"2016-11-24 03:10:00",263312,0.102,163.3,-2.935,100,0,0,862.1246,0,-1.657,3.213,205,6.918,8.24,0.8800756,0,51.88,59.73,33.76,35.62
"2016-11-24 03:20:00",263313,0.141,325.1,-2.396,100,0,0,862.1563,0,-1.592,3.208,224,6.918,8.22,1.156996,0,51.94,59.73,33.77,35.62
"2016-11-24 03:30:00",263314,0.387,311.6,-2.362,100,0.003934316,0,862.1309,0,-2.054,3.217,202,6.918,8.23,0.3414086,0,51.94,59.73,33.77,35.62
"2016-11-24 03:40:00",263315,0.222,348.6,-3.079,100,0.007868632,0,862.1731,0,-1.475,3.214,220,6.872,8.26,0,0,51.94,59.73,33.77,35.62
"2016-11-24 03:50:00",263316,0.225,358.9,-3.265,100,0,0,862.152,0,-2.62,3.225,220,6.877,8.26,0.01896715,0,51.88,59.67,33.76,35.6
"2016-11-24 04:00:00",263317,0.036,156.1,-3.077,100,0,0,862.1162,0,-1.779,3.215,241,6.902,8.25,0.2617466,0,51.88,59.67,33.76,35.6
"2016-11-24 04:10:00",263318,0.447,85.2,-2.781,100,0,0,861.9707,0,-3.103,3.226,267,6.912,8.23,0.4893523,0,51.94,59.67,33.77,35.6
"2016-11-24 04:20:00",263319,0.635,25.7,-2.309,100,0,0,861.8105,0,-4.879,3.241,202,6.908,8.21,0.7245449,0,51.94,59.67,33.77,35.6
"2016-11-24 04:30:00",263320,0.057,67.61,-1.983,100,0,0,861.6924,0,-3.163,3.223,214,6.869,8.21,0.6828173,0,51.88,59.67,33.76,35.6
"2016-11-24 04:40:00",263321,0,0,-1.899,100,0,0,861.8695,0,-4.186,3.233,239,6.837,8.2,0.2731269,0,51.88,59.67,33.76,35.6
"2016-11-24 04:50:00",263322,0,0,-1.936,100,0,0,861.9623,0,-1.145,3.203,294,6.83,8.18,0.0910423,0,51.94,59.67,33.77,35.6
"2016-11-24 05:00:00",263323,0,0,-1.996,100,0.02754021,0,861.8842,0,-2.115,3.213,207,6.829,8.18,0.01896715,0,51.88,59.67,33.76,35.6
"2016-11-24 05:10:00",263324,0.449,48.34,-1.937,100,0.07868632,0,861.6081,0,-2.892,3.219,225,6.851,8.19,0.3641692,0,51.94,59.67,33.77,35.6
"2016-11-24 05:20:00",263325,0.87,99.8,-1.511,100,0,0,861.4794,0,-1.923,3.208,205,6.852,8.17,0.5500472,0,51.94,59.67,33.77,35.6
"2016-11-24 05:30:00",263326,0.414,139.5,-1.451,100,0,0,861.218,0,-1.377,3.201,192,6.819,8.18,0.2769203,0,51.88,59.67,33.76,35.6
"2016-11-24 05:40:00",263327,0.261,150.1,-0.896,100,0,0,861.0979,0,-2.455,3.209,187,6.781,8.18,0.6828173,0,51.88,59.67,33.76,35.6
"2016-11-24 05:50:00",263328,0.156,129.7,-0.716,100,0,0,860.866,0,-2.905,3.213,194,6.791,8.17,0.2920941,0,51.94,59.67,33.77,35.6
"2016-11-24 06:00:00",263329,0,0,-0.681,100,0,0,860.7836,0,-1.781,3.202,209,6.773,8.15,0.2276058,0,51.94,59.67,33.77,35.6
"2016-11-24 06:10:00",263330,0.298,313.6,-0.72,100,0.01573726,0,860.8058,0,-2.13,3.206,192,6.72,8.13,0.2086386,0.016,51.88,59.67,33.76,35.6
"2016-11-24 06:20:00",263331,0.523,317.8,-1.404,100,1.302259,0,861.0732,0,-2.092,3.212,191,6.723,8.13,0,0,51.88,59.67,33.76,35.6
"2016-11-24 06:30:00",263332,0.269,307.2,-2.176,100,1.089799,0,861.0422,0,-1.664,3.209,196,6.74,8.13,0,0,51.88,59.61,33.76,35.59
"2016-11-24 06:40:00",263333,0.013,134.1,-1.975,100,0.1219603,0,860.8372,0,-1.987,3.21,202,6.732,8.12,0.3907059,0.45,51.88,59.61,33.76,35.59
"2016-11-24 06:50:00",263334,0.255,175.3,-1.487,100,0,0,860.7512,0,-1.895,3.206,206,6.73,8.12,1.293499,0,51.94,59.61,33.77,35.59
"2016-11-24 07:00:00",263335,0.027,180.4,-1.052,100,0.02753936,0,860.7748,0,-2.274,3.208,197,6.732,8.12,1.824586,0.964,51.88,59.61,33.76,35.59
"2016-11-24 07:10:00",263336,0,0,-0.623,100,0.133762,0,860.762,0,-3.475,3.218,201,6.718,8.12,2.503571,3.471,51.88,59.61,33.76,35.59
"2016-11-24 07:20:00",263337,0.137,207.1,-0.554,100,1.317937,0,860.9459,0,-2.973,3.214,206,6.689,8.12,3.527734,3.056,51.88,59.61,33.76,35.59
"2016-11-24 07:30:00",263338,0.106,62.09,-0.721,100,3.438322,0,861.0432,0,-1.293,3.196,204,6.682,8.11,6.103143,1.773,51.88,59.61,33.76,35.59
"2016-11-24 07:40:00",263339,0.054,358.9,-0.476,100,4.457085,0,861.0428,0,-1.566,3.198,198,6.671,8.1,8.970464,2.019,51.88,59.61,33.76,35.59
"2016-11-24 07:50:00",263340,0.096,299.1,-0.34,100,5.664611,0,861.0284,0,-1.285,3.195,190,6.661,8.09,11.34454,2.003,51.88,59.61,33.76,35.59
"2016-11-24 08:00:00",263341,0.073,132.2,-0.246,100,7.469858,0,860.9436,0,-1.231,3.194,209,6.649,8.07,14.98881,2.007,51.94,59.61,33.77,35.59
"2016-11-24 08:10:00",263342,0.223,316.7,-0.179,100,5.589446,0,861.0505,0,-1.502,3.196,208,6.641,8.03,11.13129,1.991,51.88,59.61,33.76,35.59
"2016-11-24 08:20:00",263343,0.997,20.02,-0.204,100,7.174476,0,861.2864,0,-1.521,3.197,199,6.635,7.988,13.55068,1.895,51.88,59.61,33.76,35.59
"2016-11-24 08:30:00",263344,0.308,12.96,-0.311,100,7.268546,0,861.493,0,-0.515,3.187,203,6.613,7.989,13.98618,1.927,51.88,59.61,33.76,35.59
"2016-11-24 08:40:00",263345,0.675,45.89,-0.308,100,10.03322,0,861.5162,0,-0.511,3.187,215,6.584,7.976,20.09114,2.001,51.88,59.61,33.76,35.59
"2016-11-24 08:50:00",263346,0.285,21.15,-0.278,100,13.38399,0,861.6384,0,-0.385,3.185,206,6.536,7.99,28.11886,2.097,51.88,59.61,33.76,35.59
"2016-11-24 09:00:00",263347,0.081,93.2,-0.098,100,21.37574,0,861.5519,0,-0.335,3.184,202,6.531,7.992,46.15034,2.157,51.88,59.61,33.76,35.59
"2016-11-24 09:10:00",263348,0.047,99,-0.108,100,29.09614,0,861.5162,0,-0.31,3.183,202,6.532,7.973,63.26418,2.174,51.88,59.56,33.76,35.58
"2016-11-24 09:20:00",263349,0,0,0.054,100,33.87862,0,861.3286,0,0.039,3.179,200,6.527,7.959,73.85939,2.18,51.82,59.56,33.75,35.58
"2016-11-24 09:30:00",263350,0,0,0.075,100,33.69771,0,861.2675,0,0.064,3.179,225,6.524,7.955,71.5386,2.12,51.88,59.56,33.76,35.58
"2016-11-24 09:40:00",263351,0,0,0.067,100,33.22182,0,861.2675,0,-0.711,3.186,230,6.525,7.958,69.60083,2.094,51.88,59.56,33.76,35.58
"2016-11-24 09:50:00",263352,0,0,0.116,100,41.34341,0,861.3159,0,-1.861,3.198,274,6.524,7.956,89.53608,2.165,51.88,59.56,33.76,35.58
"2016-11-24 10:00:00",263353,0.039,353.9,-0.061,100,54.34975,0,861.4845,0,-1.36,3.194,212,6.527,7.97,113.6996,2.084,51.82,59.56,33.75,35.58
"2016-11-24 10:10:00",263354,0.186,348.2,-0.392,100,70.45133,0,861.5204,0,-2.406,3.207,191,6.522,7.965,142.3036,2.006,51.88,59.56,33.76,35.58
"2016-11-24 10:20:00",263355,0,0,-0.719,100,59.51768,0,861.5204,0,-0.806,3.193,227,6.542,7.976,116.5209,1.943,51.82,59.56,33.75,35.58
"2016-11-24 10:30:00",263356,0.046,349.1,-0.623,100,81.05463,0,861.4635,0,-1.807,3.201,230,6.527,7.963,159.2241,1.958,51.82,59.56,33.75,35.58
"2016-11-24 10:40:00",263357,0.369,337.4,-0.47,100,67.15157,0,861.278,0,-0.908,3.192,218,6.524,7.962,126.8469,1.878,51.82,59.56,33.75,35.58
"2016-11-24 10:50:00",263358,0.136,335.7,-0.217,100,72.2959,0,861.2675,0,-0.861,3.188,204,6.523,7.95,136.604,1.888,51.88,59.56,33.76,35.58
"2016-11-24 11:00:00",263359,0.571,12.15,-0.155,100,73.67638,0,861.1726,0,-1.559,3.197,220,6.522,7.94,130.275,1.768,51.82,59.56,33.75,35.58
"2016-11-24 11:10:00",263360,0.412,0.878,-0.281,100,77.57788,0,861.0314,0,-0.885,3.19,222,6.522,7.916,130.1309,1.676,51.82,59.56,33.75,35.58
"2016-11-24 11:20:00",263361,0.566,21.27,-0.104,100,85.55788,0,861.0672,0,-2.361,3.204,200,6.522,7.909,137.5976,1.609,51.82,59.56,33.75,35.58
"2016-11-24 11:30:00",263362,0.438,16.34,-0.09,100,76.89748,0,861.2653,0,-2.959,3.211,187,6.495,7.911,115.0533,1.499,51.82,59.56,33.75,35.58
"2016-11-24 11:40:00",263363,0.236,1.278,-0.226,100,88.35423,0,861.2401,0,-1.76,3.198,196,6.493,7.905,120.1576,1.359,51.82,59.56,33.75,35.58
"2016-11-24 11:50:00",263364,0.093,60.13,-0.077,100,41.0563,0,861.0251,0,-1.81,3.198,195,6.485,7.908,55.69886,1.359,51.82,59.56,33.75,35.58
"2016-11-24 12:00:00",263365,0.074,33,-0.041,100,37.92172,0,861.0145,0,-1.76,3.198,230,6.479,7.926,46.21095,1.221,51.82,59.56,33.75,35.58
"2016-11-24 12:10:00",263366,0.368,354.1,0.007,100,57.20509,0,860.9913,0,-1.71,3.198,185,6.479,7.931,61.39465,1.076,51.82,59.56,33.75,35.58
"2016-11-24 12:20:00",263367,0.335,3.758,0.004,100,53.24458,0,860.77,0,-1.761,3.198,203,6.479,7.91,53.62836,1.006,51.82,59.5,33.75,35.56
"2016-11-24 12:30:00",263368,0.067,347.1,0.094,100,41.94909,0,860.7616,0,-2.462,3.204,202,6.479,7.871,40.39002,0.963,51.82,59.5,33.75,35.56
"2016-11-24 12:40:00",263369,0,0,0.168,100,44.06896,0,860.8122,0,-3.063,3.209,192,6.479,7.865,45.45252,1.031,51.77,59.5,33.73,35.56
"2016-11-24 12:50:00",263370,0.116,32.12,0.239,100,52.04503,0,860.8396,0,-3.038,3.209,189,6.479,7.865,52.3087,1.012,51.82,59.5,33.75,35.56
"2016-11-24 13:00:00",263371,0.095,43.82,0.297,100,68.61857,0,860.7616,0,-1.663,3.195,193,6.479,7.865,63.12386,0.921,51.82,59.5,33.75,35.56
"2016-11-24 13:10:00",263372,0.043,78.46,0.328,100,43.61273,0,860.7616,0,-2.063,3.199,194,6.479,7.865,39.04002,0.9,51.82,59.5,33.75,35.56
"2016-11-24 13:20:00",263373,0.171,33.88,0.331,100,27.36956,0,860.7531,0,-1.762,3.196,198,6.479,7.868,23.89044,0.875,51.82,59.5,33.75,35.56
"2016-11-24 13:30:00",263374,0.072,19.52,0.277,100,9.710509,0,860.7616,0,-2.813,3.207,210,6.503,7.904,9.461374,0.978,51.82,59.5,33.75,35.56
"2016-11-24 13:40:00",263375,0.115,88.8,0.251,100,18.1664,0,860.7448,0,-3.263,3.211,181,6.498,7.877,14.33427,0.793,51.82,59.5,33.75,35.56
"2016-11-24 13:50:00",263376,0.111,56.6,0.205,100,24.56141,0,860.6815,0,-3.487,3.214,185,6.481,7.865,20.0073,0.814,51.82,59.5,33.75,35.56
"2016-11-24 14:00:00",263377,0.206,6.025,0.152,100,23.05115,0,860.6794,0,-3.462,3.214,189,6.466,7.867,17.14045,0.74,51.82,59.56,33.75,35.58
"2016-11-24 14:10:00",263378,0.133,331.1,0.163,100,29.0568,0,860.7342,0,-3.762,3.217,193,6.448,7.86,18.90758,0.651,51.88,59.5,33.76,35.56
"2016-11-24 14:20:00",263379,0.128,346.2,0.162,100,40.14385,0,860.6541,2,-3.462,3.214,180,6.457,7.847,25.52485,0.638,51.88,59.5,33.76,35.56
"2016-11-24 14:30:00",263380,0.209,3.381,0.139,100,47.52211,0,860.6014,36,-3.513,3.214,194,6.476,7.832,28.9757,0.61,51.88,59.5,33.76,35.56
"2016-11-24 14:40:00",263381,0.163,310.6,0.163,100,18.87827,0,860.7616,4,-3.162,3.211,189,6.476,7.83,11.51292,0.61,51.88,59.5,33.76,35.56
"2016-11-24 14:50:00",263382,0.212,309.7,0.075,100,11.75959,0,860.8739,0,-2.912,3.209,188,6.488,7.789,6.928229,0.588,51.88,59.5,33.76,35.56
"2016-11-24 15:00:00",263383,0.352,330.2,0.004,100,7.622098,0,861.0076,0,-2.985,3.21,191,6.472,7.79,4.262357,0.557,51.88,59.5,33.76,35.56
"2016-11-24 15:10:00",263384,0.101,295.2,0.013,100,8.164501,0,861.0624,0.5,-2.774,3.208,192,6.475,7.77,4.485902,0.549,51.88,59.5,33.76,35.56
"2016-11-24 15:20:00",263385,0.196,283.2,-0.122,100,9.81982,0,861.2257,0,-2.845,3.21,196,6.462,7.757,5.445055,0.554,51.94,59.5,33.77,35.56
"2016-11-24 15:30:00",263386,0.19,303,-0.297,100,8.518064,0,861.3346,0,-2.995,3.212,192,6.435,7.755,4.963465,0.582,51.94,59.5,33.77,35.56
"2016-11-24 15:40:00",263387,0.137,290.9,-0.307,100,11.08623,0,861.4822,0.5,-3.149,3.213,180,6.42,7.759,9.968783,0.899,51.94,59.5,33.77,35.56
"2016-11-24 15:50:00",263388,0.273,316.2,-0.508,100,13.49714,0,861.7069,0,-3.492,3.219,187,6.421,7.764,14.22343,1.037,51.99,59.5,33.79,35.56
"2016-11-24 16:00:00",263389,0.192,291.3,-0.658,100,15.00295,0,861.7197,0,-3.987,3.224,187,6.387,7.756,15.79283,1.031,51.99,59.5,33.79,35.56
"2016-11-24 16:10:00",263390,0.208,359.7,-0.856,100,4.675876,0,861.7444,0,-4.164,3.227,197,6.369,7.762,3.693204,0.778,51.99,59.5,33.79,35.56
"2016-11-24 16:20:00",263391,0.079,336.1,-0.968,100,5.800769,0,861.7776,0,-4.167,3.227,196,6.376,7.795,5.088721,0.865,52.05,59.56,33.8,35.58
"2016-11-24 16:30:00",263392,0.184,7.474,-0.839,100,2.033246,0,861.9547,0,-4.094,3.226,206,6.379,7.803,0.8266433,0.306,52.05,59.56,33.8,35.58
"2016-11-24 16:40:00",263393,0.291,348.4,-0.939,100,1.018587,0,862.0156,0,-3.84,3.224,238,6.379,7.783,0,0,51.99,59.56,33.79,35.58
"2016-11-24 16:50:00",263394,0.133,357.2,-1,100,0.8573478,0,862.196,0,-3.346,3.219,271,6.386,7.766,0,0,51.99,59.56,33.79,35.58
"2016-11-24 17:00:00",263395,0.299,10.86,-1.005,100,1.144473,0,862.2792,0,-2.199,3.208,320,6.393,7.772,0,0,52.05,59.56,33.8,35.58
"2016-11-24 17:10:00",263396,0.249,345.2,-1.272,100,2.65473,0,862.4933,0,-4.341,3.231,216,6.368,7.775,0,0,52.05,59.56,33.8,35.58
"2016-11-24 17:20:00",263397,0.171,330.4,-1.439,100,4.68803,0,862.7303,0,-3.441,3.223,249,6.368,7.752,0,0,52.05,59.61,33.8,35.59
"2016-11-24 17:30:00",263398,0.238,278.1,-1.517,100,5.793218,0,863.0175,0,-2.744,3.216,259,6.389,7.747,0,0,52.05,59.56,33.8,35.58
"2016-11-24 17:40:00",263399,0.076,349.4,-1.57,100,6.343861,0,863.0164,0,-4.238,3.232,217,6.39,7.733,0,0,52.05,59.61,33.8,35.59
"2016-11-24 17:50:00",263400,0.545,292.9,-1.871,100,6.784366,0,863.0275,0,-4.182,3.234,200,6.391,7.737,0,0,52.1,59.61,33.81,35.59
"2016-11-24 18:00:00",263401,0.098,240.1,-1.928,100,3.240766,0,863.2341,0,-4.358,3.235,196,6.386,7.742,0,0,52.05,59.61,33.8,35.59
"2016-11-24 18:10:00",263402,0.148,228.6,-1.929,100,0,0,863.2894,0,-4.358,3.235,200,6.371,7.757,0.4398871,0,52.1,59.61,33.81,35.59
"2016-11-24 18:20:00",263403,0.3,167.1,-1.993,100,0,0,863.3447,0,-3.832,3.231,224,6.358,7.707,0.6560385,0,52.05,59.61,33.8,35.59
"2016-11-24 18:30:00",263404,0.001,345.3,-2.115,100,0,0,863.4338,0,-3.681,3.23,214,6.351,7.691,0.8532293,0,52.1,59.61,33.81,35.59
"2016-11-24 18:40:00",263405,0.024,1.92,-2.112,98.9,0,0,863.5436,0,-4.229,3.235,192,6.378,7.691,1.224858,0,52.1,59.61,33.81,35.59
"2016-11-24 18:50:00",263406,0.133,26.07,-2.175,97.6,0,0,863.5436,0,-4.477,3.238,221,6.34,7.691,1.361375,0,52.05,59.61,33.8,35.59
"2016-11-24 19:00:00",263407,0.05,342.1,-2.487,99.2,0,0,863.5583,0,-3.722,3.233,201,6.308,7.696,1.323453,0,52.05,59.61,33.8,35.59
"2016-11-24 19:10:00",263408,0.307,332.2,-2.759,100,0,0,863.8091,0,-5.068,3.246,175,6.305,7.674,1.346206,0,52.05,59.67,33.8,35.6
"2016-11-24 19:20:00",263409,0.05,6.324,-2.543,100,0,0,864.0241,0,-4.619,3.242,185,6.305,7.658,1.258987,0,52.1,59.67,33.81,35.6
"2016-11-24 19:30:00",263410,0.131,358.7,-2.658,100,0,0,864.0726,0,-4.815,3.245,194,6.305,7.648,0.5384825,0,52.1,59.67,33.81,35.6
"2016-11-24 19:40:00",263411,0.176,9.6,-2.787,100,0.04719562,0,864.2138,0,-5.116,3.247,194,6.305,7.647,0.2237357,0.048,52.1,59.67,33.81,35.6
"2016-11-24 19:50:00",263412,0.316,17.54,-2.901,100,0.1022572,0,864.3719,0,-5.061,3.248,176,6.3,7.663,0.1137639,0.048,52.1,59.67,33.81,35.6
"2016-11-24 20:00:00",263413,0.187,101.8,-2.838,100,0,0,864.4478,0,-4.766,3.244,190,6.299,7.666,0.2123593,0,52.05,59.67,33.8,35.6
"2016-11-24 20:10:00",263414,0.104,145.7,-2.788,100,0,0,864.3698,0,-5.016,3.246,179,6.302,7.667,0.1782301,0,52.05,59.67,33.8,35.6
"2016-11-24 20:20:00",263415,0.33,134.7,-2.679,100,0,0,864.3066,0,-5.09,3.247,176,6.289,7.681,0.1327246,0,52.1,59.67,33.81,35.6
"2016-11-24 20:30:00",263416,0.4,157,-2.686,100,0,0,864.4962,0,-5.116,3.247,189,6.244,7.69,0.2730334,0,52.1,59.67,33.81,35.6
"2016-11-24 20:40:00",263417,0.292,153.2,-2.682,100,0,0,864.5363,0,-5.013,3.247,184,6.248,7.69,0.2389042,0,52.1,59.67,33.81,35.6
"2016-11-24 20:50:00",263418,0.318,169.6,-2.833,100,0,0,864.5468,0,-4.814,3.245,190,6.282,7.689,0.07205047,0,52.05,59.67,33.8,35.6
"2016-11-24 21:00:00",263419,0.005,189.9,-2.992,100,0,0,864.5553,0,-5.208,3.25,189,6.304,7.667,0.4778084,0,52.05,59.73,33.8,35.62
"2016-11-24 21:10:00",263420,0.146,188.5,-3.184,100,0,0,864.5553,0,-5.226,3.252,179,6.299,7.699,0.4891848,0,52.1,59.67,33.81,35.6
"2016-11-24 21:20:00",263421,0.124,278.9,-3.362,100,0,0,864.5553,0.5,-5.049,3.251,189,6.283,7.682,0.6067408,0,52.05,59.67,33.8,35.6
"2016-11-24 21:30:00",263422,0.05,326.9,-3.527,100,0,0,864.6606,0,-5.494,3.256,180,6.323,7.648,0.7887631,0,52.1,59.67,33.81,35.6
"2016-11-24 21:40:00",263423,0.049,105.7,-3.76,100,0,0,864.5553,0,-4.592,3.249,187,6.325,7.634,0.7129204,0,52.05,59.67,33.8,35.6
"2016-11-24 21:50:00",263424,0.202,28.66,-3.681,100,0,0,864.5553,0,-4.656,3.246,193,6.265,7.635,1.016291,0,52.1,59.73,33.81,35.62
"2016-11-24 22:00:00",263425,0.489,320.2,-3.162,100,0,0,864.5637,0,-4.705,3.247,197,6.262,7.605,1.205901,0,52.1,59.67,33.81,35.6
"2016-11-24 22:10:00",263426,0.015,20.78,-3.63,100,0,0,864.5553,0,-5.044,3.253,184,6.26,7.608,0.5764129,0,52.05,59.73,33.8,35.62
"2016-11-24 22:20:00",263427,0.014,38.46,-3.998,100,0,0,864.5553,0,-4.795,3.253,180,6.238,7.616,0.5005825,0,52.1,59.73,33.81,35.62
"2016-11-24 22:30:00",263428,0.038,137.7,-3.94,99.7,0,0,864.5553,0,-4.715,3.249,185,6.25,7.617,1.031566,0,52.05,59.73,33.8,35.62
"2016-11-24 22:40:00",263429,0.131,189.6,-3.202,85.9,0,0,864.5553,0,-3.914,3.237,231,6.255,7.626,1.160558,0,52.05,59.73,33.8,35.62
"2016-11-24 22:50:00",263430,0.01,42.35,-3.025,79.63,0,0,864.5676,0,-5.228,3.252,184,6.257,7.61,0.9633668,0,52.1,59.73,33.81,35.62
"2016-11-24 23:00:00",263431,0.17,330.3,-3.606,87.3,0,0,864.8243,0,-4.819,3.252,185,6.244,7.62,1.050634,0,52.1,59.73,33.81,35.62
"2016-11-24 23:10:00",263432,0.038,187.5,-3.998,94,0,0,864.876,0,-5.04,3.256,190,6.235,7.622,1.168245,0,52.05,59.73,33.8,35.62
"2016-11-24 23:20:00",263433,0.27,178.8,-4.538,94.4,0,0,864.8492,0,-5.107,3.259,189,6.242,7.628,0.6827576,0,52.1,59.73,33.81,35.62
"2016-11-24 23:30:00",263434,0.246,178.5,-4.803,94.8,0,0,864.8668,0,-4.805,3.258,187,6.249,7.637,0.6600149,0,52.05,59.73,33.8,35.62
"2016-11-24 23:40:00",263435,0.373,178.6,-4.943,95.1,0,0,864.8846,0,-5.21,3.261,181,6.254,7.635,0.7359021,0,52.05,59.73,33.8,35.62
"2016-11-24 23:50:00",263436,0.32,180.8,-4.892,94.7,0,0,864.8956,0,-4.834,3.258,184,6.22,7.609,0.8648875,0,52.05,59.73,33.8,35.62
